Anniston, AL

1:06 PM CDT on May 27, 2018 (GMT -0500)
Anniston Metro

Weather History for KANB - December, 2012

Change the Weather History Date:

Wednesday, December 5, 2012

  Actual Average Record
Temperature  
Mean Temperature 61 °F 48 °F  
Max Temperature 69 °F 58 °F 78 °F (1972)
Min Temperature 53 °F 37 °F 19 °F (2006)
Degree Days  
Heating Degree Days 4    
Month to date heating degree days 31  
Since 1 July heating degree days 623  
Growing Degree Days 12 (Base 50)    
Moisture  
Dew Point 55 °F    
Average Humidity 77    
Maximum Humidity 93    
Minimum Humidity 61    
Precipitation  
Precipitation 0.00 in 0.15 in 1.00 in (1954)
Month to date precipitation 0.00 0.77  
Year to date precipitation 39.46 46.32  
Sea Level Pressure  
Sea Level Pressure 30.17 in    
Wind  
Wind Speed 3 mph (NNE)    
Max Wind Speed 9 mph    
Max Gust Speed 13 mph    
Visibility 10 miles    
Events      
T = Trace of Precipitation, MM = Missing Value Source: NWS Daily Summary

Daily Weather History Graph

Daily Weather History Graph

Search for Another Location

Airport or City:

Astronomy

Dec. 05, 2012 Rise Set
Actual Time 6:33 AM CST 4:35 PM CST
Civil Twilight 6:06 AM CST 5:02 PM CST
Nautical Twilight 5:35 AM CST 5:33 PM CST
Astronomical Twilight 5:05 AM CST 6:03 PM CST
Moon 11:09 PM CST (12/5) 11:09 AM CST (12/5)
Length of Visible Light 10h 56m
Length of Day
10h 01m
Waning Gibbous, 59% of the Moon is Illuminated
Dec 5
Waning Gibbous
Dec 6
Last Quarter
Dec 13
New
Dec 19
First Quarter
Dec 28
Full

Hourly Weather History & Observations

Time (CST) Temp. Dew Point Humidity Pressure Visibility Wind Dir Wind Speed Gust Speed Precip Events Conditions
12:53 AM 57.9 °F 55.0 °F 90% 30.18 in 9.0 mi Calm Calm - N/A   Overcast
1:53 AM 57.9 °F 55.0 °F 90% 30.17 in 10.0 mi Calm Calm - N/A   Overcast
2:53 AM 57.0 °F 55.0 °F 93% 30.17 in 10.0 mi Calm Calm - N/A   Overcast
3:53 AM 57.0 °F 55.0 °F 93% 30.17 in 10.0 mi Calm Calm - N/A   Overcast
4:53 AM 57.9 °F 55.0 °F 90% 30.18 in 10.0 mi Calm Calm - N/A   Overcast
5:53 AM 57.9 °F 55.9 °F 93% 30.20 in 10.0 mi Calm Calm - N/A   Overcast
6:45 AM 59.0 °F 55.4 °F 88% 30.21 in 10.0 mi Calm Calm - N/A   Overcast
6:53 AM 59.0 °F 55.9 °F 90% 30.21 in 10.0 mi Calm Calm - N/A   Overcast
8:53 AM 64.0 °F 60.1 °F 87% 30.22 in 7.0 mi SW 5.8 mph - N/A   Overcast
9:38 AM 64.4 °F 60.8 °F 88% 30.23 in 8.0 mi Calm Calm - N/A   Scattered Clouds
9:53 AM 66.0 °F 60.1 °F 81% 30.22 in 8.0 mi Calm Calm - N/A   Scattered Clouds
10:53 AM 68.0 °F 59.0 °F 73% 30.21 in 10.0 mi Calm Calm - N/A   Scattered Clouds
11:35 AM 68.0 °F 57.2 °F 68% 30.19 in 10.0 mi Calm Calm - N/A   Overcast
11:48 AM 69.8 °F 55.4 °F 60% 30.18 in 10.0 mi WNW 5.8 mph - N/A   Mostly Cloudy
11:53 AM 69.1 °F 55.0 °F 61% 30.18 in 10.0 mi NW 3.5 mph - N/A   Overcast
12:53 PM 66.9 °F 55.9 °F 68% 30.15 in 10.0 mi NNW 3.5 mph - N/A   Overcast
1:53 PM 66.9 °F 57.0 °F 70% 30.13 in 10.0 mi NNE 6.9 mph - N/A   Overcast
2:53 PM 66.9 °F 55.0 °F 66% 30.13 in 10.0 mi North 4.6 mph - N/A   Mostly Cloudy
3:53 PM 66.0 °F 54.0 °F 65% 30.13 in 10.0 mi NNE 4.6 mph - N/A   Overcast
4:53 PM 64.9 °F 54.0 °F 68% 30.14 in 10.0 mi NNE 4.6 mph - N/A   Overcast
5:53 PM 63.0 °F 55.9 °F 78% 30.14 in 10.0 mi North 6.9 mph - N/A   Overcast
6:53 PM 61.0 °F 55.9 °F 83% 30.15 in 9.0 mi NNE 8.1 mph - N/A   Overcast
7:53 PM 60.1 °F 54.0 °F 80% 30.15 in 10.0 mi ENE 8.1 mph - N/A   Overcast
8:53 PM 59.0 °F 52.0 °F 78% 30.15 in 10.0 mi ENE 4.6 mph - N/A   Overcast
9:53 PM 55.9 °F 51.1 °F 84% 30.14 in 10.0 mi ENE 3.5 mph - N/A   Clear
10:53 PM 55.0 °F 51.1 °F 86% 30.13 in 10.0 mi ENE 3.5 mph - N/A   Clear
11:53 PM 53.1 °F 51.1 °F 93% 30.12 in 10.0 mi NE 4.6 mph - N/A   Clear